{"data":{"norad_id":59621,"intl_designator":"2024-080W","name":"STARLINK-31758","alt_names":[],"object_type":"PAYLOAD","status":"ACTIVE","operator":null,"country":"US","launch_date":"2024-04-28","launch_site_code":"AFETR","launch_vehicle":null,"mission":null,"orbit_class":"UNKNOWN","rcs_meters":null,"size_class":null,"mass_kg":null,"dimensions":null,"purposes":["comms"],"wikipedia_slug":null,"has_3d_model":false,"image_url":null,"decayed_at":null,"tle_current":{"epoch":"2026-05-24T18:40:10.752672Z","epoch_age_seconds":88241,"freshness":"FRESH","line1":"1 59621U 24080W   26144.77790223  .00003356  00000+0  13140-3 0  9999","line2":"2 59621  42.9996 324.3711 0001239 267.9987  92.0723 15.27582239116216","mean_motion":15.27582239,"eccentricity":0.0001239,"inclination_deg":42.9996,"raan_deg":324.3711,"arg_perigee_deg":267.9987,"mean_anomaly_deg":92.0723,"bstar":0.0001314,"rev_number":11621,"period_min":94.266610545476,"perigee_km":482.19229154974,"apogee_km":483.892491803,"semimajor_km":6861.1793916764,"source":"CELESTRAK","updated_at":"2026-05-25T13:38:19.011742Z"}}}